Time,TemperatureF,DewpointF,PressureIn,WindDirection,WindDirectionDegrees,WindSpeedMPH,WindSpeedGustMPH,Humidity,HourlyPrecipIn,Conditions,Clouds,dailyrainin,SoftwareType,DateUTC
2013-11-23 00:12:00,34.0,32.0,30.50,NW,318,4.0,10.0,91,0.00,,,0.01,,2013-11-23 06:12:00,
2013-11-23 00:22:00,34.0,31.0,30.50,NNW,347,2.0,11.0,90,0.00,,,0.01,,2013-11-23 06:22:00,
2013-11-23 00:42:00,34.0,32.0,30.50,NNW,333,2.0,7.0,91,0.00,,,0.01,,2013-11-23 06:42:00,
2013-11-23 00:52:00,34.0,32.0,30.50,NW,316,2.0,8.0,92,0.01,,,0.02,,2013-11-23 06:52:00,
2013-11-23 01:11:00,34.0,32.0,30.50,ENE,63,2.0,6.0,94,0.03,,,0.04,,2013-11-23 07:11:00,
2013-11-23 01:21:00,34.0,32.0,30.50,NW,316,1.0,4.0,94,0.03,,,0.04,,2013-11-23 07:21:00,
2013-11-23 01:42:00,34.0,33.0,30.50,NW,314,0.0,3.0,95,0.03,,,0.04,,2013-11-23 07:42:00,
2013-11-23 01:52:00,34.0,33.0,30.50,NW,319,2.0,7.0,95,0.01,,,0.04,,2013-11-23 07:52:00,
2013-11-23 02:21:00,34.0,33.0,30.51,NW,322,0.0,2.0,95,0.00,,,0.04,,2013-11-23 08:21:00,
2013-11-23 02:42:00,34.0,32.0,30.51,WNW,293,1.0,5.0,94,0.00,,,0.04,,2013-11-23 08:42:00,
2013-11-23 02:52:00,34.0,32.0,30.50,NNW,347,0.0,6.0,93,0.00,,,0.04,,2013-11-23 08:52:00,
2013-11-23 03:22:00,34.0,32.0,30.50,NNW,330,0.0,4.0,93,0.00,,,0.04,,2013-11-23 09:22:00,
2013-11-23 03:43:00,34.0,32.0,30.51,NW,314,1.0,5.0,93,0.00,,,0.04,,2013-11-23 09:43:00,
2013-11-23 03:54:00,34.0,32.0,30.50,NNW,333,0.0,6.0,92,0.00,,,0.04,,2013-11-23 09:54:00,
2013-11-23 04:23:00,34.0,32.0,30.51,WNW,290,4.0,8.0,91,0.00,,,0.04,,2013-11-23 10:23:00,
2013-11-23 04:42:00,34.0,31.0,30.51,NNW,335,2.0,10.0,90,0.00,,,0.04,,2013-11-23 10:42:00,
2013-11-23 04:52:00,34.0,31.0,30.52,North,11,3.0,8.0,90,0.00,,,0.04,,2013-11-23 10:52:00,
2013-11-23 05:22:00,34.0,31.0,30.53,NW,323,0.0,6.0,89,0.00,,,0.04,,2013-11-23 11:22:00,
2013-11-23 05:42:00,34.0,31.0,30.53,West,271,2.0,5.0,89,0.00,,,0.04,,2013-11-23 11:42:00,
2013-11-23 05:52:00,34.0,31.0,30.53,NW,324,1.0,4.0,89,0.00,,,0.04,,2013-11-23 11:52:00,
2013-11-23 06:22:00,34.0,31.0,30.54,NNW,333,0.0,6.0,89,0.00,,,0.04,,2013-11-23 12:22:00,
2013-11-23 06:42:00,34.0,31.0,30.56,West,278,3.0,9.0,89,0.00,,,0.04,,2013-11-23 12:42:00,
2013-11-23 06:52:00,33.0,30.0,30.56,WNW,282,2.0,8.0,90,0.00,,,0.04,,2013-11-23 12:52:00,
2013-11-23 07:11:00,33.0,30.0,30.56,WNW,301,1.0,5.0,90,0.00,,,0.04,,2013-11-23 13:11:00,
2013-11-23 07:22:00,34.0,31.0,30.57,NW,322,0.0,8.0,90,0.00,,,0.04,,2013-11-23 13:22:00,
2013-11-23 07:42:00,34.0,31.0,30.57,WNW,303,2.0,9.0,89,0.00,,,0.04,,2013-11-23 13:42:00,
2013-11-23 07:52:00,33.0,30.0,30.58,NW,310,2.0,8.0,87,0.00,,,0.04,,2013-11-23 13:52:00,
2013-11-23 08:21:00,34.0,31.0,30.60,North,1,1.0,6.0,87,0.00,,,0.04,,2013-11-23 14:21:00,
2013-11-23 08:42:00,34.0,31.0,30.60,NW,322,2.0,8.0,87,0.00,,,0.04,,2013-11-23 14:42:00,
2013-11-23 08:52:00,34.0,30.0,30.61,WNW,301,2.0,6.0,86,0.00,,,0.04,,2013-11-23 14:52:00,
2013-11-23 09:22:00,35.0,30.0,30.60,NE,53,0.0,6.0,83,0.00,,,0.04,,2013-11-23 15:22:00,
2013-11-23 09:43:00,35.0,28.0,30.60,WSW,257,3.0,10.0,76,0.00,,,0.04,,2013-11-23 15:43:00,
2013-11-23 09:54:00,36.0,28.0,30.62,WNW,301,2.0,8.0,72,0.00,,,0.04,,2013-11-23 15:54:00,
2013-11-23 10:23:00,37.0,27.0,30.61,NW,322,2.0,7.0,66,0.00,,,0.04,,2013-11-23 16:23:00,
2013-11-23 10:43:00,37.0,26.0,30.61,NNW,328,2.0,8.0,63,0.00,,,0.04,,2013-11-23 16:43:00,
2013-11-23 10:53:00,38.0,24.0,30.61,WNW,287,4.0,9.0,57,0.00,,,0.04,,2013-11-23 16:53:00,
2013-11-23 11:22:00,38.0,23.0,30.60,NE,44,3.0,7.0,55,0.00,,,0.04,,2013-11-23 17:22:00,
2013-11-23 11:42:00,38.0,20.0,30.61,NW,322,2.0,9.0,48,0.00,,,0.04,,2013-11-23 17:42:00,
2013-11-23 11:52:00,38.0,22.0,30.60,North,5,2.0,7.0,51,0.00,,,0.04,,2013-11-23 17:52:00,
2013-11-23 12:22:00,39.0,21.0,30.59,NW,326,2.0,6.0,49,0.00,,,0.04,,2013-11-23 18:22:00,
2013-11-23 12:42:00,39.0,17.0,30.60,West,276,6.0,14.0,40,0.00,,,0.04,,2013-11-23 18:42:00,
2013-11-23 12:52:00,40.0,18.0,30.59,SE,135,2.0,10.0,41,0.00,,,0.04,,2013-11-23 18:52:00,
2013-11-23 13:22:00,40.0,18.0,30.59,NNE,22,2.0,9.0,41,0.00,,,0.04,,2013-11-23 19:22:00,
2013-11-23 13:42:00,40.0,16.0,30.59,NE,36,4.0,12.0,38,0.00,,,0.04,,2013-11-23 19:42:00,
2013-11-23 13:52:00,40.0,16.0,30.58,NNW,337,4.0,11.0,38,0.00,,,0.04,,2013-11-23 19:52:00,
2013-11-23 14:11:00,40.0,19.0,30.58,West,269,2.0,8.0,42,0.00,,,0.04,,2013-11-23 20:11:00,
2013-11-23 14:22:00,40.0,17.0,30.58,ENE,58,4.0,11.0,39,0.00,,,0.04,,2013-11-23 20:22:00,
2013-11-23 14:42:00,40.0,19.0,30.58,WNW,298,1.0,13.0,42,0.00,,,0.04,,2013-11-23 20:42:00,
2013-11-23 14:53:00,40.0,19.0,30.58,WNW,288,3.0,10.0,43,0.00,,,0.04,,2013-11-23 20:53:00,
2013-11-23 15:11:00,40.0,20.0,30.58,West,278,3.0,10.0,44,0.00,,,0.04,,2013-11-23 21:11:00,
2013-11-23 15:21:00,40.0,21.0,30.58,WSW,255,2.0,7.0,47,0.00,,,0.04,,2013-11-23 21:21:00,
2013-11-23 15:43:00,41.0,22.0,30.58,NNW,345,3.0,12.0,46,0.00,,,0.04,,2013-11-23 21:43:00,
2013-11-23 15:53:00,40.0,20.0,30.58,North,11,3.0,11.0,45,0.00,,,0.04,,2013-11-23 21:53:00,
2013-11-23 16:13:00,40.0,21.0,30.58,NW,304,1.0,7.0,47,0.00,,,0.04,,2013-11-23 22:13:00,
2013-11-23 16:23:00,39.0,21.0,30.57,North,356,2.0,5.0,49,0.00,,,0.04,,2013-11-23 22:23:00,
2013-11-23 16:43:00,39.0,21.0,30.58,WNW,298,4.0,10.0,48,0.00,,,0.04,,2013-11-23 22:43:00,
2013-11-23 16:53:00,39.0,20.0,30.58,NW,315,3.0,8.0,46,0.00,,,0.04,,2013-11-23 22:53:00,
2013-11-23 17:21:00,38.0,20.0,30.58,NW,320,2.0,7.0,48,0.00,,,0.04,,2013-11-23 23:21:00,
2013-11-23 17:42:00,38.0,20.0,30.59,North,359,3.0,14.0,47,0.00,,,0.04,,2013-11-23 23:42:00,
2013-11-23 17:53:00,36.0,18.0,30.60,North,9,3.0,9.0,48,0.00,,,0.04,,2013-11-23 23:53:00,
2013-11-23 18:11:00,35.0,18.0,30.61,NW,320,3.0,9.0,49,0.00,,,0.04,,2013-11-24 00:11:00,
2013-11-23 18:21:00,35.0,19.0,30.61,NNW,335,4.0,9.0,52,0.00,,,0.04,,2013-11-24 00:21:00,
2013-11-23 18:42:00,34.0,15.0,30.62,WNW,291,5.0,11.0,46,0.00,,,0.04,,2013-11-24 00:42:00,
2013-11-23 18:52:00,33.0,16.0,30.63,WNW,298,4.0,11.0,49,0.00,,,0.04,,2013-11-24 00:52:00,
2013-11-23 19:11:00,32.0,15.0,30.64,NW,318,5.0,12.0,50,0.00,,,0.04,,2013-11-24 01:11:00,
2013-11-23 19:22:00,31.0,15.0,30.65,NNE,12,4.0,10.0,51,0.00,,,0.04,,2013-11-24 01:22:00,
2013-11-23 19:42:00,31.0,16.0,30.65,NNW,344,2.0,9.0,53,0.00,,,0.04,,2013-11-24 01:42:00,
2013-11-23 19:53:00,30.0,15.0,30.66,NW,320,3.0,11.0,54,0.00,,,0.04,,2013-11-24 01:53:00,
2013-11-23 20:12:00,30.0,16.0,30.66,NW,321,1.0,6.0,55,0.00,,,0.04,,2013-11-24 02:12:00,
2013-11-23 20:22:00,29.0,14.0,30.67,NNW,336,3.0,11.0,54,0.00,,,0.04,,2013-11-24 02:22:00,
2013-11-23 20:42:00,29.0,15.0,30.67,NNW,340,2.0,7.0,56,0.00,,,0.04,,2013-11-24 02:42:00,
2013-11-23 20:52:00,29.0,15.0,30.66,NW,304,2.0,6.0,55,0.00,,,0.04,,2013-11-24 02:52:00,
2013-11-23 21:11:00,28.0,14.0,30.67,NNW,333,3.0,6.0,55,0.00,,,0.04,,2013-11-24 03:11:00,
2013-11-23 21:22:00,28.0,14.0,30.66,North,5,1.0,6.0,56,0.00,,,0.04,,2013-11-24 03:22:00,
2013-11-23 21:43:00,28.0,15.0,30.66,NW,309,2.0,8.0,57,0.00,,,0.04,,2013-11-24 03:43:00,
2013-11-23 21:53:00,27.0,13.0,30.66,North,11,2.0,9.0,56,0.00,,,0.04,,2013-11-24 03:53:00,
2013-11-23 22:02:00,-999.0,-99.9,30.66,NW,322,3.0,6.0,-999,0.00,,,0.04,,2013-11-24 04:02:00,
2013-11-23 22:23:00,27.0,14.0,30.66,NNE,25,3.0,10.0,58,0.00,,,0.03,,2013-11-24 04:23:00,
2013-11-23 22:42:00,27.0,14.0,30.66,NNW,330,3.0,9.0,58,0.00,,,0.03,,2013-11-24 04:42:00,
2013-11-23 22:53:00,26.0,14.0,30.67,NNE,30,2.0,8.0,59,0.00,,,0.03,,2013-11-24 04:53:00,
2013-11-23 23:22:00,25.0,11.0,30.68,NNE,18,4.0,8.0,55,0.00,,,0.03,,2013-11-24 05:22:00,
2013-11-23 23:43:00,25.0,11.0,30.68,WNW,297,4.0,9.0,54,0.00,,,0.03,,2013-11-24 05:43:00,
2013-11-23 23:53:00,25.0,12.0,30.68,NNE,18,2.0,6.0,56,0.00,,,0.03,,2013-11-24 05:53:00,